GPS BIII-1 (43873 NORAD) Tracking and Keplerian Element Data

This shows tracking and keplerian element data for the satellite.

Feedback or suggestion? Click here.




ElementValue
Catalog43873
NameGPS BIII-1
Epoch Orbit4024
Epoch Day159.87126905
Epoch Year2024
RAAN121.3957
Inclination55.2942
Eccentricity0.0028893
Argument of Perigee195.5515
Mean Anonmoly347.5279
Mean Motion2.0055565
Decay Rate-3E-08
L11 43873U 18109A 24159.87126905 -.00000003 00000+0 00000+0 0 9995
L22 43873 55.2942 121.3957 0028893 195.5515 347.5279 2.00555650 40248



Live tracking and technical data element details for GPS BIII-1 (NORAD 43873). GPS BIII-1 can be tracked NOW for your location showing map with azimuth and elevation plus other details from your city location.







IsCatalogInMostPopularTable: catalog: 43873, numindb: 1472
Update: records affected: 1



GetName: 43873 GPS BIII-1

Hit Count: updated at: Tue, 17 Sep 2024 13:02:11 GMT